This is the latest recevied weather packets stored in our database for station/object PY2CQC-13. If no packets are shown the sender has not sent any weather packets the latest 10 day(s).
| Time | Temp. | Humidity | Pressure | Rain* | Wind** | Luminosity | Snow |
|---|---|---|---|---|---|---|---|
| 1777210324 | 28.33° C | 54% | 1031.4 hPa | - | - | - | - |
| 1777208524 | 27.78° C | 56% | 1031.5 hPa | - | - | - | - |
| 1777206724 | 26.11° C | 61% | 1031.7 hPa | - | - | - | - |
| 1777204925 | 25° C | 63% | 1031.7 hPa | - | - | - | - |
| 1777203125 | 25° C | 62% | 1031.6 hPa | - | - | - | - |
| 1777201325 | 25° C | 62% | 1031.5 hPa | - | - | - | - |
| 1777199525 | 24.44° C | 62% | 1031.2 hPa | - | - | - | - |
| 1777197724 | 24.44° C | 62% | 1030.9 hPa | - | - | - | - |
| 1777195924 | 25° C | 61% | 1030.4 hPa | - | - | - | - |
| 1777194124 | 25° C | 60% | 1030 hPa | - | - | - | - |
| 1777192325 | 25° C | 61% | 1029.6 hPa | - | - | - | - |
| 1777190525 | 25° C | 61% | 1029.5 hPa | - | - | - | - |
| 1777188725 | 25° C | 60% | 1029.6 hPa | - | - | - | - |
| 1777186925 | 25.56° C | 60% | 1029.6 hPa | - | - | - | - |
| 1777185124 | 25.56° C | 60% | 1029.5 hPa | - | - | - | - |
| 1777183325 | 25.56° C | 61% | 1029.5 hPa | - | - | - | - |
| 1777181525 | 25.56° C | 60% | 1029.5 hPa | - | - | - | - |
| 1777179725 | 25.56° C | 60% | 1029.6 hPa | - | - | - | - |
| 1777177925 | 25.56° C | 60% | 1029.7 hPa | - | - | - | - |
| 1777176125 | 26.11° C | 59% | 1030 hPa | - | - | - | - |
| 1777174324 | 26.11° C | 59% | 1030.4 hPa | - | - | - | - |
| 1777172526 | 26.11° C | 59% | 1030.6 hPa | - | - | - | - |
| 1777170724 | 26.11° C | 59% | 1030.7 hPa | - | - | - | - |
| 1777168925 | 26.67° C | 59% | 1030.9 hPa | - | - | - | - |
| 1777167127 | 26.67° C | 58% | 1030.7 hPa | - | - | - | - |
* Rain since midnight (hover to see other rain measurements)
** Current wind speed in m/s (hover to see current wind gust speed)